STARLINK-36058

Last updated on Wed Dec 31 2025 00:02:06 GMT+0000 (Coordinated Universal Time)

1 66591U 25270D 25364.58098202 .00064141 00000+0 15296-2 0 9997 2 66591 43.0018 89.3183 0001844 260.5849 99.4799 15.40703326 7104
UTC large
Height (km)
Speed (km/s)
/
Latitude / Longitude
Inclination (degrees)
Orbital Period (minutes)
Azimuth
Elevation
Range (km)
Doppler Factor

Next 0 passes for location: London (51.5072 / 0.1276)

Sorry there are no passes over London.